Home   Weather   Sarajevo   Past weeks

Flag for Bosnia-Herzegovina Past Weather in Sarajevo, Bosnia-Herzegovina — Yesterday and Last 2 Weeks

Now
41 °F

Passing clouds.


Feels Like: 41 °F
Forecast: 38 / 65 °F
Wind: 1 mph from North

Location: Sarajevo / Butmir

Current Time: Sep 26, 2016 at 5:44:51 AM

Latest Report: Sep 26, 2016 at 5:00 AM


Visibility: 5 mi

Pressure: 30.18 "Hg (28.29 "Hg at 526m altitude)

Humidity: 100%

Dew Point: 41 °F

Location of SarajevoLocation

Past Weather in Sarajevo — Graph

°F

Sarajevo Temperature Yesterday

Maximum temperature yesterday: 64 °F (at 2:00 PM)
Minimum temperature yesterday: 41 °F (at 5:00 AM)
Average temperature yesterday: 52 °F

High & Low Weather Summary for the Past Weeks

 TemperatureHumidityPressure
High82 °F (Sep 16, 3:00 PM)100% (Sep 11, 4:00 AM)30.39 "Hg (Sep 11, 4:00 AM)
Low39 °F (Sep 23, 5:00 AM)34% (Sep 16, 4:30 PM)29.71 "Hg (Sep 19, 3:00 PM)
Average60 °F81%30.09 "Hg
* Reported Sep 11 4:00 AM — Sep 26 4:00 AM, Sarajevo, Weather by CustomWeather, © 2016

Note: Actual official high and low records may vary slightly from our data, if they occured in-between our weather recording intervals... More about our weather records

Advertising

Sarajevo Weather History for the Previous 24 Hours

Scroll right to see more
 ConditionsComfort  
Time TempWeatherWind HumidityBarometerVisibility
4:00 AM
Mon, Sep 26
43 °FPartly cloudy.1 mph100%30.18 "Hg5 mi
3:00 AM43 °FPassing clouds.1 mph100%30.18 "HgN/A
2:00 AM45 °FClear.1 mph93%30.18 "Hg10 mi
1:00 AM45 °FClear.No wind100%30.18 "Hg10 mi
12:00 AM46 °FClear.No wind93%30.18 "Hg10 mi
11:00 PM
Sun, Sep 25
48 °FClear.No wind94%30.18 "Hg10 mi
10:30 PM48 °FClear.1 mph94%30.18 "Hg10 mi
10:00 PM50 °FClear.1 mph94%30.18 "Hg10 mi
9:30 PM52 °FClear.1 mph88%30.15 "Hg10 mi
9:00 PM52 °FClear.No wind88%30.15 "Hg10 mi
8:30 PM55 °FPassing clouds.2 mph82%30.15 "HgN/A
8:00 PM55 °FPassing clouds.1 mph82%30.15 "HgN/A
7:30 PM57 °FPassing clouds.2 mph82%30.12 "HgN/A
7:00 PM59 °FPassing clouds.1 mph77%30.12 "HgN/A
6:30 PM61 °FScattered clouds.No wind68%30.12 "HgN/A
6:00 PM63 °FScattered clouds.1 mph59%30.12 "HgN/A
5:30 PM63 °FPartly sunny.3 mph56%30.12 "HgN/A
5:00 PM64 °FPartly sunny.1 mph49%30.12 "HgN/A
4:30 PM64 °FScattered clouds.3 mph49%30.12 "HgN/A
4:00 PM64 °FScattered clouds.3 mph49%30.12 "HgN/A
3:30 PM64 °FScattered clouds.1 mph52%30.15 "HgN/A
3:00 PM64 °FScattered clouds.2 mph52%30.15 "HgN/A
2:30 PM64 °FPartly sunny.1 mph56%30.15 "HgN/A
2:00 PM64 °FScattered clouds.1 mph56%30.18 "HgN/A
1:30 PM61 °FScattered clouds.1 mph59%30.18 "HgN/A
1:00 PM59 °FPassing clouds.2 mph68%30.21 "HgN/A
12:30 PM57 °FPassing clouds.1 mph77%30.21 "HgN/A
12:00 PM54 °FPassing clouds.1 mph82%30.24 "Hg5 mi
11:30 AM50 °FFog.2 mph94%30.24 "Hg3 mi
11:00 AM48 °FFog.2 mph94%30.27 "Hg2 mi
10:30 AM46 °FFog.3 mph93%30.27 "Hg2 mi
10:00 AM46 °FFog.1 mph93%30.27 "Hg2 mi
9:30 AM46 °FFog.1 mph93%30.27 "Hg2 mi
9:00 AM45 °FFog.1 mph100%30.27 "Hg2 mi
8:30 AM45 °FFog.No wind100%30.27 "Hg2 mi
8:00 AM45 °FFog.No wind100%30.30 "Hg2 mi
7:30 AM43 °FFog.2 mph100%30.30 "Hg2 mi
7:00 AM45 °FFog.2 mph93%30.30 "Hg2 mi
6:30 AM45 °FFog.1 mph100%30.30 "Hg2 mi
6:00 AM43 °FFog.No wind100%30.27 "Hg2 mi
5:30 AM43 °FFog.1 mph100%30.27 "Hg2 mi
5:00 AM41 °FFog.No wind100%30.30 "Hg2 mi
Weather by CustomWeather, © 2016

See weather overviewHow to use our weather pages